Time,TemperatureF,DewpointF,PressureIn,WindDirection,WindDirectionDegrees,WindSpeedMPH,WindSpeedGustMPH,Humidity,HourlyPrecipIn,Conditions,Clouds,dailyrainin,SoftwareType,DateUTC
2013-01-13 00:13:00,54.7,53.0,30.06,NNE,19,4.0,7.0,94,0.00,,,0.00,weatherlink.com 1.10,2013-01-13 05:13:00,
2013-01-13 00:28:00,54.7,53.0,30.05,WSW,246,4.0,9.0,94,0.00,,,0.00,weatherlink.com 1.10,2013-01-13 05:28:00,
2013-01-13 00:43:00,54.8,53.0,30.05,SSE,161,1.0,8.0,93,0.00,,,0.00,weatherlink.com 1.10,2013-01-13 05:43:00,
2013-01-13 00:58:00,54.8,53.0,30.05,NE,34,2.0,5.0,92,0.00,,,0.00,weatherlink.com 1.10,2013-01-13 05:58:00,
2013-01-13 01:13:00,54.8,53.0,30.04,NW,322,0.0,7.0,92,0.00,,,0.00,weatherlink.com 1.10,2013-01-13 06:13:00,
2013-01-13 01:28:00,54.5,53.0,30.05,NNW,333,0.0,7.0,93,0.00,,,0.00,weatherlink.com 1.10,2013-01-13 06:28:00,
2013-01-13 01:43:00,54.3,53.0,30.05,North,355,0.0,5.0,94,0.00,,,0.00,weatherlink.com 1.10,2013-01-13 06:43:00,
2013-01-13 01:58:00,54.1,53.0,30.05,NE,48,1.0,6.0,94,0.00,,,0.00,weatherlink.com 1.10,2013-01-13 06:58:00,
2013-01-13 02:13:00,54.0,52.0,30.04,NE,38,5.0,9.0,93,0.00,,,0.00,weatherlink.com 1.10,2013-01-13 07:13:00,
2013-01-13 02:28:00,54.0,52.0,30.04,ENE,68,2.0,8.0,91,0.00,,,0.00,weatherlink.com 1.10,2013-01-13 07:28:00,
2013-01-13 02:43:00,54.0,52.0,30.05,West,273,5.0,8.0,91,0.00,,,0.00,weatherlink.com 1.10,2013-01-13 07:43:00,
2013-01-13 02:58:00,53.9,52.0,30.04,North,9,4.0,7.0,93,0.00,,,0.00,weatherlink.com 1.10,2013-01-13 07:58:00,
2013-01-13 03:13:00,54.0,52.0,30.04,NNE,33,2.0,5.0,93,0.00,,,0.00,weatherlink.com 1.10,2013-01-13 08:13:00,
2013-01-13 03:28:00,54.0,52.0,30.04,NW,305,4.0,8.0,93,0.00,,,0.00,weatherlink.com 1.10,2013-01-13 08:28:00,
2013-01-13 03:44:00,54.1,53.0,30.04,NW,313,8.0,9.0,94,0.00,,,0.00,weatherlink.com 1.10,2013-01-13 08:44:00,
2013-01-13 03:59:00,54.0,52.0,30.04,NNW,347,0.0,7.0,94,0.00,,,0.00,weatherlink.com 1.10,2013-01-13 08:59:00,
2013-01-13 04:14:00,54.1,53.0,30.03,NNE,26,0.0,9.0,94,0.00,,,0.00,weatherlink.com 1.10,2013-01-13 09:14:00,
2013-01-13 04:29:00,54.1,53.0,30.02,WNW,298,2.0,9.0,95,0.00,,,0.00,weatherlink.com 1.10,2013-01-13 09:29:00,
2013-01-13 04:44:00,54.3,53.0,30.02,NNE,30,2.0,11.0,94,0.00,,,0.00,weatherlink.com 1.10,2013-01-13 09:44:00,
2013-01-13 04:59:00,54.3,53.0,30.02,North,5,3.0,10.0,95,0.00,,,0.00,weatherlink.com 1.10,2013-01-13 09:59:00,
2013-01-13 05:14:00,54.2,53.0,30.01,NE,45,2.0,9.0,95,0.00,,,0.00,weatherlink.com 1.10,2013-01-13 10:14:00,
2013-01-13 05:29:00,54.5,53.0,30.00,NNE,30,2.0,14.0,94,0.00,,,0.00,weatherlink.com 1.10,2013-01-13 10:29:00,
2013-01-13 05:44:00,54.7,53.0,30.00,NE,49,5.0,13.0,94,0.00,,,0.00,weatherlink.com 1.10,2013-01-13 10:44:00,
2013-01-13 05:59:00,54.8,53.0,30.01,SW,231,1.0,9.0,93,0.00,,,0.00,weatherlink.com 1.10,2013-01-13 10:59:00,
2013-01-13 06:14:00,55.0,53.0,30.01,NNW,348,6.0,12.0,93,0.00,,,0.00,weatherlink.com 1.10,2013-01-13 11:14:00,
2013-01-13 06:29:00,55.0,53.0,30.03,WSW,242,6.0,13.0,94,0.00,,,0.00,weatherlink.com 1.10,2013-01-13 11:29:00,
2013-01-13 06:44:00,55.0,54.0,30.03,NNW,332,7.0,12.0,95,0.00,,,0.00,weatherlink.com 1.10,2013-01-13 11:44:00,
2013-01-13 06:59:00,54.8,54.0,30.03,North,355,8.0,12.0,96,0.00,,,0.00,weatherlink.com 1.10,2013-01-13 11:59:00,
2013-01-13 07:05:00,54.7,53.6,30.03,NW,308,5.0,5.0,96,0.00,,,0.00,Wunderground v.1.15,2013-01-13 12:05:00,
2013-01-13 07:10:00,54.7,53.3,30.04,WNW,282,5.0,5.0,95,0.00,,,0.00,Wunderground v.1.15,2013-01-13 12:10:00,
2013-01-13 07:16:00,54.6,53.0,30.04,SW,236,4.0,11.0,95,0.00,,,0.00,weatherlink.com 1.10,2013-01-13 12:16:00,
2013-01-13 07:25:00,54.6,52.9,30.04,West,261,4.0,6.0,94,0.00,,,0.00,Wunderground v.1.15,2013-01-13 12:25:00,
2013-01-13 07:35:00,54.6,52.9,30.04,WSW,243,4.0,5.0,94,0.00,,,0.00,Wunderground v.1.15,2013-01-13 12:35:00,
2013-01-13 07:40:00,54.6,52.9,30.05,West,269,4.0,6.0,94,0.00,,,0.00,Wunderground v.1.15,2013-01-13 12:40:00,
2013-01-13 07:55:00,54.5,52.5,30.06,NNW,347,5.0,7.0,93,0.00,,,0.00,Wunderground v.1.15,2013-01-13 12:55:00,
2013-01-13 08:00:00,54.5,52.5,30.07,West,266,6.0,6.0,93,0.00,,,0.00,Wunderground v.1.15,2013-01-13 13:00:00,
2013-01-13 08:10:00,54.4,52.1,30.07,NNE,22,5.0,7.0,92,0.00,,,0.00,Wunderground v.1.15,2013-01-13 13:10:00,
2013-01-13 08:16:00,54.3,52.0,30.07,NNE,13,6.0,9.0,92,0.00,,,0.00,weatherlink.com 1.10,2013-01-13 13:16:00,
2013-01-13 08:25:00,54.1,51.8,30.07,West,272,3.0,6.0,92,0.00,,,0.00,Wunderground v.1.15,2013-01-13 13:25:00,
2013-01-13 08:30:00,54.1,52.0,30.07,SW,234,2.0,7.0,91,0.00,,,0.00,weatherlink.com 1.10,2013-01-13 13:30:00,
2013-01-13 08:40:00,54.2,51.6,30.08,NE,46,2.0,3.0,91,0.00,,,0.00,Wunderground v.1.15,2013-01-13 13:40:00,
2013-01-13 08:46:00,54.4,52.0,30.08,NW,312,1.0,6.0,90,0.00,,,0.00,weatherlink.com 1.10,2013-01-13 13:46:00,
2013-01-13 08:55:00,54.6,51.7,30.08,NNW,340,2.0,2.0,90,0.00,,,0.00,Wunderground v.1.15,2013-01-13 13:55:00,
2013-01-13 09:01:00,54.6,52.0,30.08,North,5,1.0,5.0,90,0.00,,,0.00,weatherlink.com 1.10,2013-01-13 14:01:00,
2013-01-13 09:10:00,54.4,51.5,30.08,SW,226,3.0,6.0,90,0.00,,,0.00,Wunderground v.1.15,2013-01-13 14:10:00,
2013-01-13 09:16:00,54.6,52.0,30.08,WSW,252,4.0,10.0,90,0.00,,,0.00,weatherlink.com 1.10,2013-01-13 14:16:00,
2013-01-13 09:25:00,54.8,51.9,30.08,SW,227,3.0,6.0,90,0.00,,,0.00,Wunderground v.1.15,2013-01-13 14:25:00,
2013-01-13 09:30:00,54.8,52.0,30.08,West,265,4.0,7.0,91,0.00,,,0.00,weatherlink.com 1.10,2013-01-13 14:30:00,
2013-01-13 09:40:00,54.7,52.1,30.08,WNW,302,3.0,3.0,91,0.00,,,0.00,Wunderground v.1.15,2013-01-13 14:40:00,
2013-01-13 09:45:00,54.8,52.5,30.08,NW,323,2.0,4.0,92,0.00,,,0.00,Wunderground v.1.15,2013-01-13 14:45:00,
2013-01-13 09:50:00,54.8,52.5,30.08,West,279,2.0,2.0,92,0.00,,,0.00,Wunderground v.1.15,2013-01-13 14:50:00,
2013-01-13 10:00:00,54.9,52.6,30.08,NW,325,3.0,3.0,92,0.00,,,0.00,Wunderground v.1.15,2013-01-13 15:00:00,
2013-01-13 10:10:00,55.3,53.0,30.07,West,270,3.0,3.0,92,0.00,,,0.00,Wunderground v.1.15,2013-01-13 15:10:00,
2013-01-13 10:16:00,55.5,53.0,30.07,WNW,289,5.0,8.0,92,0.00,,,0.00,weatherlink.com 1.10,2013-01-13 15:16:00,
2013-01-13 10:25:00,55.7,53.4,30.07,NE,52,3.0,3.0,92,0.00,,,0.00,Wunderground v.1.15,2013-01-13 15:25:00,
2013-01-13 10:30:00,56.0,54.0,30.07,NNW,337,2.0,2.0,93,0.00,,,0.00,Wunderground v.1.15,2013-01-13 15:30:00,
2013-01-13 10:35:00,56.1,53.8,30.07,NNE,23,2.0,3.0,92,0.00,,,0.00,Wunderground v.1.15,2013-01-13 15:35:00,
2013-01-13 10:45:00,56.3,53.7,30.07,NNE,30,3.0,4.0,91,0.00,,,0.00,Wunderground v.1.15,2013-01-13 15:45:00,
2013-01-13 10:50:00,56.4,54.1,30.06,West,269,3.0,3.0,92,0.00,,,0.00,Wunderground v.1.15,2013-01-13 15:50:00,
2013-01-13 11:00:00,56.5,53.9,30.06,North,360,3.0,3.0,91,0.00,,,0.00,Wunderground v.1.15,2013-01-13 16:00:00,
2013-01-13 11:10:00,56.7,54.1,30.06,NW,306,3.0,3.0,91,0.00,,,0.00,Wunderground v.1.15,2013-01-13 16:10:00,
2013-01-13 11:17:00,56.5,54.0,30.06,NNW,332,5.0,9.0,91,0.00,,,0.00,weatherlink.com 1.10,2013-01-13 16:17:00,
2013-01-13 11:25:00,56.6,54.3,30.05,WSW,243,3.0,6.0,92,0.00,,,0.00,Wunderground v.1.15,2013-01-13 16:25:00,
2013-01-13 11:32:00,56.5,55.0,30.05,NW,321,3.0,12.0,93,0.00,,,0.00,weatherlink.com 1.10,2013-01-13 16:32:00,
2013-01-13 11:40:00,56.4,54.4,30.05,South,169,3.0,3.0,93,0.00,,,0.00,Wunderground v.1.15,2013-01-13 16:40:00,
2013-01-13 11:47:00,56.4,55.0,30.04,North,5,4.0,9.0,93,0.00,,,0.00,weatherlink.com 1.10,2013-01-13 16:47:00,
2013-01-13 11:55:00,56.3,54.3,30.05,SW,227,4.0,5.0,93,0.00,,,0.00,Wunderground v.1.15,2013-01-13 16:55:00,
2013-01-13 12:00:00,56.2,54.2,30.04,NNE,16,3.0,4.0,93,0.00,,,0.00,Wunderground v.1.15,2013-01-13 17:00:00,
2013-01-13 12:10:00,55.7,54.0,30.04,WNW,286,4.0,4.0,94,0.00,,,0.00,Wunderground v.1.15,2013-01-13 17:10:00,
2013-01-13 12:17:00,55.4,54.0,30.04,North,10,3.0,13.0,94,0.00,,,0.00,weatherlink.com 1.10,2013-01-13 17:17:00,
2013-01-13 12:25:00,55.2,53.8,30.03,North,355,3.0,4.0,95,0.00,,,0.00,Wunderground v.1.15,2013-01-13 17:25:00,
2013-01-13 12:30:00,55.1,53.7,30.03,NNE,12,3.0,6.0,95,0.00,,,0.00,Wunderground v.1.15,2013-01-13 17:30:00,
2013-01-13 12:40:00,55.1,54.0,30.02,NNE,17,4.0,4.0,96,0.00,,,0.00,Wunderground v.1.15,2013-01-13 17:40:00,
2013-01-13 12:48:00,55.3,54.0,30.02,NW,310,4.0,10.0,96,0.00,,,0.00,weatherlink.com 1.10,2013-01-13 17:48:00,
2013-01-13 12:55:00,55.5,54.4,30.02,North,5,4.0,4.0,96,0.00,,,0.00,Wunderground v.1.15,2013-01-13 17:55:00,
2013-01-13 13:00:00,55.7,54.3,30.02,WNW,302,4.0,4.0,95,0.00,,,0.00,Wunderground v.1.15,2013-01-13 18:00:00,
2013-01-13 13:06:00,55.6,54.0,30.02,NNE,24,2.0,9.0,95,0.00,,,0.00,weatherlink.com 1.10,2013-01-13 18:06:00,
2013-01-13 13:15:00,55.5,54.1,30.03,SW,231,4.0,7.0,95,0.00,,,0.00,Wunderground v.1.15,2013-01-13 18:15:00,
2013-01-13 13:20:00,55.5,54.1,30.02,North,9,4.0,4.0,95,0.00,,,0.00,Wunderground v.1.15,2013-01-13 18:20:00,
2013-01-13 13:30:00,55.6,54.2,30.02,NNW,328,4.0,4.0,95,0.00,,,0.00,Wunderground v.1.15,2013-01-13 18:30:00,
2013-01-13 13:40:00,55.8,54.4,30.02,WNW,290,2.0,2.0,95,0.00,,,0.00,Wunderground v.1.15,2013-01-13 18:40:00,
2013-01-13 13:45:00,55.8,54.4,30.02,NNE,22,3.0,6.0,95,0.00,,,0.00,Wunderground v.1.15,2013-01-13 18:45:00,
2013-01-13 13:55:00,55.6,54.2,30.02,South,171,3.0,5.0,95,0.00,,,0.00,Wunderground v.1.15,2013-01-13 18:55:00,
2013-01-13 14:00:00,55.4,54.0,30.01,West,265,3.0,3.0,95,0.00,,,0.00,Wunderground v.1.15,2013-01-13 19:00:00,
2013-01-13 14:10:00,55.3,53.9,30.01,NNE,28,2.0,2.0,95,0.00,,,0.00,Wunderground v.1.15,2013-01-13 19:10:00,
2013-01-13 14:19:00,55.5,54.0,30.02,NE,46,0.0,6.0,95,0.00,,,0.00,weatherlink.com 1.10,2013-01-13 19:19:00,
2013-01-13 14:25:00,55.5,54.1,30.02,West,281,1.0,6.0,95,0.00,,,0.00,Wunderground v.1.15,2013-01-13 19:25:00,
2013-01-13 14:30:00,55.4,53.7,30.02,NNW,331,2.0,3.0,94,0.00,,,0.00,Wunderground v.1.15,2013-01-13 19:30:00,
2013-01-13 14:35:00,55.3,53.6,30.01,NNW,336,3.0,3.0,94,0.00,,,0.00,Wunderground v.1.15,2013-01-13 19:35:00,
2013-01-13 14:45:00,55.2,53.5,30.02,WSW,239,2.0,2.0,94,0.00,,,0.00,Wunderground v.1.15,2013-01-13 19:45:00,
2013-01-13 14:50:00,55.2,53.5,30.02,North,355,2.0,2.0,94,0.00,,,0.00,Wunderground v.1.15,2013-01-13 19:50:00,
2013-01-13 15:00:00,55.2,53.2,30.02,North,355,2.0,5.0,93,0.00,,,0.00,Wunderground v.1.15,2013-01-13 20:00:00,
2013-01-13 15:06:00,55.1,54.0,30.03,WSW,246,1.0,8.0,94,0.00,,,0.00,weatherlink.com 1.10,2013-01-13 20:06:00,
2013-01-13 15:15:00,55.1,53.4,30.02,North,5,3.0,4.0,94,0.00,,,0.00,Wunderground v.1.15,2013-01-13 20:15:00,
2013-01-13 15:20:00,55.1,53.1,30.02,NNE,22,3.0,4.0,93,0.00,,,0.00,Wunderground v.1.15,2013-01-13 20:20:00,
2013-01-13 15:30:00,55.2,53.2,30.03,NNW,345,3.0,5.0,93,0.00,,,0.00,Wunderground v.1.15,2013-01-13 20:30:00,
2013-01-13 15:40:00,55.3,53.3,30.03,NNW,337,3.0,4.0,93,0.00,,,0.00,Wunderground v.1.15,2013-01-13 20:40:00,
2013-01-13 15:50:00,55.4,54.0,30.03,NNE,13,3.0,9.0,93,0.00,,,0.00,weatherlink.com 1.10,2013-01-13 20:50:00,
2013-01-13 16:00:00,55.6,53.6,30.03,NNW,341,3.0,3.0,93,0.00,,,0.00,Wunderground v.1.15,2013-01-13 21:00:00,
2013-01-13 16:10:00,55.7,53.7,30.04,South,190,3.0,5.0,93,0.00,,,0.00,Wunderground v.1.15,2013-01-13 21:10:00,
2013-01-13 16:20:00,55.9,54.0,30.04,WNW,285,3.0,12.0,92,0.00,,,0.00,weatherlink.com 1.10,2013-01-13 21:20:00,
2013-01-13 16:30:00,56.0,53.7,30.04,North,355,3.0,3.0,92,0.00,,,0.00,Wunderground v.1.15,2013-01-13 21:30:00,
2013-01-13 16:35:00,56.0,53.7,30.04,WNW,282,2.0,4.0,92,0.00,,,0.00,Wunderground v.1.15,2013-01-13 21:35:00,
2013-01-13 16:45:00,56.0,53.7,30.03,NE,37,2.0,2.0,92,0.00,,,0.00,Wunderground v.1.15,2013-01-13 21:45:00,
2013-01-13 16:50:00,56.0,54.0,30.03,NNW,327,3.0,5.0,92,0.00,,,0.00,weatherlink.com 1.10,2013-01-13 21:50:00,
2013-01-13 17:00:00,56.0,53.4,30.04,West,275,3.0,4.0,91,0.00,,,0.00,Wunderground v.1.15,2013-01-13 22:00:00,
2013-01-13 17:06:00,55.9,53.0,30.04,WSW,243,2.0,6.0,91,0.00,,,0.00,weatherlink.com 1.10,2013-01-13 22:06:00,
2013-01-13 17:15:00,55.9,53.3,30.04,NNW,328,4.0,6.0,91,0.00,,,0.00,Wunderground v.1.15,2013-01-13 22:15:00,
2013-01-13 17:20:00,55.8,53.5,30.04,South,174,5.0,5.0,92,0.00,,,0.00,Wunderground v.1.15,2013-01-13 22:20:00,
2013-01-13 17:30:00,55.7,53.4,30.04,North,5,5.0,5.0,92,0.00,,,0.00,Wunderground v.1.15,2013-01-13 22:30:00,
2013-01-13 17:36:00,55.7,54.0,30.04,NNE,23,5.0,13.0,92,0.00,,,0.00,weatherlink.com 1.10,2013-01-13 22:36:00,
2013-01-13 17:45:00,55.6,53.3,30.04,North,5,3.0,5.0,92,0.00,,,0.00,Wunderground v.1.15,2013-01-13 22:45:00,
2013-01-13 17:51:00,55.5,54.0,30.04,North,360,1.0,7.0,93,0.00,,,0.00,weatherlink.com 1.10,2013-01-13 22:51:00,
2013-01-13 18:00:00,55.6,53.3,30.03,NNE,30,2.0,3.0,92,0.00,,,0.00,Wunderground v.1.15,2013-01-13 23:00:00,
2013-01-13 18:06:00,55.6,54.0,30.04,WSW,247,3.0,8.0,93,0.00,,,0.00,weatherlink.com 1.10,2013-01-13 23:06:00,
2013-01-13 18:15:00,55.6,53.3,30.04,NE,39,2.0,3.0,92,0.00,,,0.00,Wunderground v.1.15,2013-01-13 23:15:00,
2013-01-13 18:20:00,55.4,53.4,30.03,WNW,292,2.0,2.0,93,0.00,,,0.00,Wunderground v.1.15,2013-01-13 23:20:00,
2013-01-13 18:30:00,55.4,53.4,30.03,NE,46,2.0,4.0,93,0.00,,,0.00,Wunderground v.1.15,2013-01-13 23:30:00,
2013-01-13 18:37:00,55.5,54.0,30.02,NNE,21,5.0,6.0,93,0.00,,,0.00,weatherlink.com 1.10,2013-01-13 23:37:00,
2013-01-13 18:45:00,55.4,53.4,30.02,NNE,15,3.0,3.0,93,0.00,,,0.00,Wunderground v.1.15,2013-01-13 23:45:00,
2013-01-13 18:50:00,55.4,53.4,30.03,NNE,18,3.0,3.0,93,0.00,,,0.00,Wunderground v.1.15,2013-01-13 23:50:00,
2013-01-13 19:00:00,55.4,53.4,30.03,NE,36,3.0,5.0,93,0.00,,,0.00,Wunderground v.1.15,2013-01-14 00:00:00,
2013-01-13 19:05:00,55.6,53.3,30.03,ENE,62,3.0,5.0,92,0.00,,,0.00,Wunderground v.1.15,2013-01-14 00:05:00,
2013-01-13 19:15:00,55.7,53.4,30.03,West,263,3.0,4.0,92,0.00,,,0.00,Wunderground v.1.15,2013-01-14 00:15:00,
2013-01-13 19:22:00,55.8,54.0,30.03,NNW,333,2.0,9.0,92,0.00,,,0.00,weatherlink.com 1.10,2013-01-14 00:22:00,
2013-01-13 19:30:00,55.9,53.6,30.03,NW,325,3.0,3.0,92,0.00,,,0.00,Wunderground v.1.15,2013-01-14 00:30:00,
2013-01-13 19:37:00,55.8,54.0,30.03,NNW,338,2.0,7.0,92,0.00,,,0.00,weatherlink.com 1.10,2013-01-14 00:37:00,
2013-01-13 19:45:00,55.8,53.5,30.03,NE,55,3.0,3.0,92,0.00,,,0.00,Wunderground v.1.15,2013-01-14 00:45:00,
2013-01-13 19:50:00,55.8,53.5,30.04,SE,139,2.0,3.0,92,0.00,,,0.00,Wunderground v.1.15,2013-01-14 00:50:00,
2013-01-13 20:00:00,55.9,53.6,30.04,SW,222,3.0,7.0,92,0.00,,,0.00,Wunderground v.1.15,2013-01-14 01:00:00,
2013-01-13 20:07:00,55.9,54.0,30.04,WNW,294,3.0,7.0,93,0.00,,,0.00,weatherlink.com 1.10,2013-01-14 01:07:00,
2013-01-13 20:15:00,55.9,53.9,30.03,NW,309,2.0,3.0,93,0.00,,,0.00,Wunderground v.1.15,2013-01-14 01:15:00,
2013-01-13 20:20:00,55.9,53.9,30.03,WSW,257,2.0,2.0,93,0.00,,,0.00,Wunderground v.1.15,2013-01-14 01:20:00,
2013-01-13 20:30:00,55.8,53.8,30.03,NNW,334,2.0,3.0,93,0.00,,,0.00,Wunderground v.1.15,2013-01-14 01:30:00,
2013-01-13 20:38:00,55.8,54.0,30.03,NNW,336,3.0,6.0,94,0.00,,,0.00,weatherlink.com 1.10,2013-01-14 01:38:00,
2013-01-13 20:45:00,55.7,54.0,30.03,North,360,2.0,3.0,94,0.00,,,0.00,Wunderground v.1.15,2013-01-14 01:45:00,
2013-01-13 20:50:00,55.8,54.1,30.03,NNE,26,2.0,2.0,94,0.00,,,0.00,Wunderground v.1.15,2013-01-14 01:50:00,
2013-01-13 21:00:00,55.8,54.4,30.02,NNE,17,2.0,2.0,95,0.00,,,0.00,Wunderground v.1.15,2013-01-14 02:00:00,
2013-01-13 21:08:00,55.7,54.0,30.02,North,360,2.0,4.0,95,0.00,,,0.00,weatherlink.com 1.10,2013-01-14 02:08:00,
2013-01-13 21:15:00,55.6,54.5,30.03,NNW,343,2.0,2.0,96,0.00,,,0.00,Wunderground v.1.15,2013-01-14 02:15:00,
2013-01-13 21:20:00,55.6,54.5,30.03,WSW,247,2.0,2.0,96,0.00,,,0.00,Wunderground v.1.15,2013-01-14 02:20:00,
2013-01-13 21:30:00,55.5,54.7,30.02,North,350,3.0,3.0,97,0.00,,,0.00,Wunderground v.1.15,2013-01-14 02:30:00,
2013-01-13 21:38:00,55.5,55.0,30.02,North,10,2.0,6.0,97,0.00,,,0.00,weatherlink.com 1.10,2013-01-14 02:38:00,
2013-01-13 21:45:00,55.4,54.6,30.02,NE,44,3.0,3.0,97,0.00,,,0.00,Wunderground v.1.15,2013-01-14 02:45:00,
2013-01-13 21:50:00,55.3,54.7,30.03,NW,304,3.0,3.0,98,0.00,,,0.00,Wunderground v.1.15,2013-01-14 02:50:00,
2013-01-13 21:55:00,55.2,54.6,30.03,North,5,3.0,3.0,98,0.00,,,0.01,Wunderground v.1.15,2013-01-14 02:55:00,
2013-01-13 22:05:00,55.2,54.6,30.03,SW,227,3.0,3.0,98,0.11,,,0.03,Wunderground v.1.15,2013-01-14 03:05:00,
2013-01-13 22:15:00,55.2,54.6,30.03,SSE,159,2.0,4.0,98,0.06,,,0.04,Wunderground v.1.15,2013-01-14 03:15:00,
2013-01-13 22:20:00,55.2,54.6,30.03,NE,39,3.0,3.0,98,0.05,,,0.04,Wunderground v.1.15,2013-01-14 03:20:00,
2013-01-13 22:30:00,55.2,54.9,30.03,NNE,32,3.0,3.0,99,0.05,,,0.05,Wunderground v.1.15,2013-01-14 03:30:00,
2013-01-13 22:39:00,55.1,55.0,30.04,NNE,28,4.0,6.0,99,0.06,,,0.06,weatherlink.com 1.10,2013-01-14 03:39:00,
2013-01-13 22:45:00,55.1,54.8,30.04,SE,136,2.0,3.0,99,0.26,,,0.08,Wunderground v.1.15,2013-01-14 03:45:00,
2013-01-13 22:50:00,55.1,54.8,30.03,NE,41,2.0,3.0,99,0.39,,,0.11,Wunderground v.1.15,2013-01-14 03:50:00,
2013-01-13 23:00:00,55.1,54.8,30.03,NNE,13,2.0,2.0,99,0.13,,,0.13,Wunderground v.1.15,2013-01-14 04:00:00,
2013-01-13 23:09:00,55.2,55.0,30.04,WSW,256,4.0,8.0,99,0.11,,,0.15,weatherlink.com 1.10,2013-01-14 04:09:00,
2013-01-13 23:15:00,55.3,55.0,30.04,WSW,249,4.0,7.0,99,0.23,,,0.17,Wunderground v.1.15,2013-01-14 04:15:00,
2013-01-13 23:20:00,55.4,55.1,30.03,West,269,5.0,5.0,99,0.12,,,0.18,Wunderground v.1.15,2013-01-14 04:20:00,
2013-01-13 23:26:00,55.4,55.0,30.04,West,275,3.0,14.0,99,0.14,,,0.19,weatherlink.com 1.10,2013-01-14 04:26:00,
2013-01-13 23:35:00,55.5,55.2,30.04,WNW,293,4.0,4.0,99,0.09,,,0.20,Wunderground v.1.15,2013-01-14 04:35:00,
2013-01-13 23:41:00,55.5,55.0,30.05,NNW,338,3.0,8.0,99,0.14,,,0.21,weatherlink.com 1.10,2013-01-14 04:41:00,
2013-01-13 23:50:00,55.5,55.2,30.05,SW,235,4.0,6.0,99,0.04,,,0.21,Wunderground v.1.15,2013-01-14 04:50:00,